DW8522 Weather Reports


Display with metric or nautical units.
time (UTC)temp
F
wind
direction
speed
MPH
gust
MPH
rain 1hr
in
rain 24hr
in
rain mn
in
humidity
%
barometer
mb
20260831041550 58 288 4.0 15.0 0.00 0.02 0.02 85 1006.5
20260831040020 59 252 7.0 20.0 0.00 0.02 0.02 79 1005.9
20260831034519 60 252 6.0 18.0 0.00 0.02 0.02 74 1005.8
20260831033022 61 295 9.0 18.0 0.00 0.02 0.02 73 1006.0
20260831031518 61 229 6.0 21.0 0.00 0.02 0.02 75 1005.9
20260831030016 61 256 8.0 22.0 0.00 0.02 0.02 76 1005.6
20260831024515 61 219 6.0 20.0 0.00 0.02 0.02 73 1005.6
20260831023014 61 264 11.0 25.0 0.00 0.02 0.02 73 1005.8
20260831021523 62 290 7.0 15.0 0.00 0.02 0.02 73 1005.8
20260831020014 62 192 6.0 22.0 0.02 0.02 0.02 75 1006.0
20260831014519 61 247 9.0 21.0 0.02 0.02 0.02 78 1006.0
20260831013012 59 290 8.0 18.0 0.02 0.02 0.02 82 1006.0
20260831011519 60 263 10.0 19.0 0.02 0.02 0.02 81 1006.2
20260831010009 63 290 11.0 23.0 0.00 0.00 0.00 71 1006.2
20260831004508 62 281 13.0 28.0 0.00 0.00 0.00 72 1006.3
20260831003007 62 256 10.0 24.0 0.00 0.00 0.00 70 1006.5
20260831001507 63 233 9.0 25.0 0.00 0.00 0.00 69 1006.4
20260831000004 61 331 6.0 15.0 0.00 0.00 0.00 75 1006.7
20260830234502 60 288 8.0 18.0 0.00 0.00 0.00 77 1006.8
20260830233006 62 276 9.0 25.0 0.00 0.00 0.00 71 1006.9
20260830231559 61 252 10.0 21.0 0.00 0.00 0.00 70 1006.8
20260830230059 61 257 8.0 19.0 0.00 0.00 0.00 72 1007.1
20260830224556 60 266 7.0 24.0 0.00 0.00 0.00 73 1007.0
20260830223130 60 243 10.0 21.0 0.00 0.00 0.00 75 1007.3
20260830221556 60 299 10.0 17.0 0.00 0.00 0.00 72 1007.3
20260830220052 60 271 10.0 18.0 0.00 0.00 0.00 73 1007.7
20260830214550 60 271 8.0 24.0 0.00 0.00 0.00 73 1007.5
20260830213049 59 291 11.0 20.0 0.00 0.00 0.00 74 1007.2
20260830211545 59 280 7.0 17.0 0.00 0.00 0.00 77 1007.5
20260830210042 58 267 8.0 19.0 0.00 0.00 0.00 77 1007.6
20260830204540 57 250 7.0 13.0 0.00 0.00 0.00 80 1007.7
20260830203041 57 279 7.0 18.0 0.00 0.00 0.00 78 1007.7
20260830201538 56 256 7.0 16.0 0.00 0.00 0.00 78 1007.7
20260830200038 56 256 9.0 22.0 0.00 0.00 0.00 77 1007.7
20260830194544 56 325 5.0 22.0 0.00 0.00 0.00 78 1007.8
20260830193039 56 228 6.0 24.0 0.00 0.00 0.00 78 1007.8
20260830191534 56 248 8.0 15.0 0.00 0.00 0.00 77 1007.8
20260830190031 56 243 6.0 18.0 0.00 0.00 0.00 78 1007.2
20260830184534 56 259 9.0 18.0 0.00 0.00 0.00 76 1007.0
20260830183027 56 288 8.0 26.0 0.00 0.00 0.00 76 1006.9
20260830181525 56 295 10.0 24.0 0.00 0.00 0.00 77 1006.6
20260830180022 56 252 5.0 21.0 0.00 0.00 0.00 78 1006.4
20260830174521 55 228 8.0 21.0 0.00 0.00 0.00 79 1006.1
20260830173018 56 217 7.0 20.0 0.00 0.00 0.00 78 1006.1
20260830171517 55 205 8.0 18.0 0.00 0.00 0.00 79 1006.2
20260830170016 56 293 6.0 20.0 0.00 0.00 0.00 80 1006.1
20260830164512 56 164 5.0 20.0 0.00 0.00 0.00 77 1006.1
20260830163014 56 290 7.0 19.0 0.00 0.00 0.00 76 1005.7
20260830161512 56 203 8.0 18.0 0.00 0.00 0.00 76 1005.8
20260830160009 56 288 5.0 14.0 0.00 0.00 0.00 76 1006.1
20260830154507 56 302 6.0 16.0 0.00 0.01 0.00 76 1005.7
20260830153004 57 289 6.0 19.0 0.00 0.01 0.00 75 1005.5
20260830151502 57 213 10.0 22.0 0.00 0.01 0.00 75 1005.3
20260830150002 57 215 9.0 21.0 0.00 0.01 0.00 74 1005.1
20260830144600 57 274 8.0 27.0 0.00 0.01 0.00 74 1005.0
20260830143058 57 226 5.0 15.0 0.00 0.01 0.00 79 1005.2
20260830141558 57 184 5.0 14.0 0.00 0.01 0.00 81 1005.3
20260830140054 57 278 8.0 23.0 0.00 0.01 0.00 80 1005.0
20260830134553 57 252 8.0 19.0 0.00 0.01 0.00 79 1004.9
20260830133059 57 207 6.0 19.0 0.00 0.01 0.00 80 1004.8
20260830131553 57 266 4.0 19.0 0.00 0.01 0.00 81 1004.9
20260830130057 57 235 5.0 14.0 0.00 0.01 0.00 79 1004.9
20260830124546 57 288 8.0 24.0 0.00 0.01 0.00 78 1004.5
20260830123044 57 289 9.0 19.0 0.00 0.01 0.00 78 1004.7
20260830121542 57 290 10.0 22.0 0.00 0.01 0.00 78 1004.4
20260830120045 58 222 6.0 22.0 0.00 0.01 0.00 78 1004.5
20260830114540 57 250 7.0 15.0 0.00 0.01 0.01 78 1004.8
20260830113038 58 248 5.0 17.0 0.00 0.01 0.01 78 1005.0
20260830111538 58 228 5.0 16.0 0.00 0.01 0.01 78 1005.1
20260830110136 58 240 6.0 18.0 0.00 0.01 0.01 78 1005.2
20260830104538 58 138 5.0 17.0 0.00 0.18 0.01 78 1005.0
20260830103037 58 248 6.0 21.0 0.00 0.18 0.01 77 1004.8
20260830101534 58 200 6.0 16.0 0.00 0.18 0.01 77 1004.8
20260830100047 58 228 8.0 17.0 0.00 0.18 0.01 79 1004.8
20260830094536 58 212 9.0 24.0 0.00 0.39 0.01 79 1004.6
20260830093033 58 231 9.0 25.0 0.00 0.39 0.01 78 1004.5
20260830091538 58 253 8.0 18.0 0.00 0.39 0.01 81 1004.4
20260830090031 58 263 8.0 23.0 0.00 0.39 0.01 82 1004.4
20260830084600 58 283 7.0 19.0 0.00 0.67 0.01 82 1004.0
20260830083029 57 150 8.0 18.0 0.00 0.67 0.01 82 1004.2
20260830081530 57 224 6.0 17.0 0.00 0.67 0.01 83 1003.9
20260830080029 58 244 7.0 16.0 0.00 0.67 0.01 79 1004.0
20260830074528 58 300 6.0 19.0 0.00 0.81 0.01 78 1003.8
20260830073029 58 176 4.0 18.0 0.00 0.81 0.01 77 1003.8
20260830071527 58 281 5.0 13.0 0.00 0.81 0.01 78 1003.8
20260830070025 58 257 8.0 21.0 0.00 0.81 0.01 77 1003.7
20260830064526 58 257 9.0 22.0 0.00 0.91 0.01 77 1003.5
20260830063025 59 288 5.0 16.0 0.00 0.91 0.01 76 1003.5
20260830061531 59 217 7.0 15.0 0.00 0.91 0.01 76 1003.5
20260830060028 59 242 4.0 16.0 0.00 0.91 0.01 77 1003.6
20260830054521 59 265 5.0 23.0 0.00 0.98 0.01 76 1003.6
20260830053021 59 190 4.0 21.0 0.00 0.98 0.01 76 1003.5
20260830051522 60 255 4.0 14.0 0.00 0.98 0.01 74 1003.2
20260830050028 61 190 8.0 17.0 0.00 0.98 0.01 71 1003.3
20260830044520 62 218 5.0 16.0 0.00 1.01 0.01 72 1003.4
20260830043033 63 228 2.0 15.0 0.00 1.01 0.01 72 1002.9